Location: Le Rocchette
(44.3500°N, 7.8333°E)
Time: 19:11:31
(UTC+00:00)

NOAA 6 - Pass Details

Date: 17 November 2019
Orbit: 771 x 788 km, 98.6° (Epoch: 10 December)

Event Time Altitude Azimuth Distance (km) Brightness Sun altitude
Rises 05:47:35 0° 7° (N) 3,265 7.1 -7.3°
Reaches altitude 10° 05:49:59 10° 2° (N) 2,331 6.3 -6.9°
Maximum altitude 05:54:50 44° 291° (WNW) 1,064 4.3 -6.1°
Drops below altitude 10° 05:59:38 10° 221° (SW) 2,311 6.3 -5.3°
Sets 06:02:01 0° 214° (SW) 3,234 7.1 -4.9°
